Date String (YYYY-MM-DD hh:mm:ss) UTC,Instrument flags,absolute air pressure of the measurement (hPa),sample flow rate (lpm),inlet stack bypass flow (lpm),air temperature of the measurement (°C),ambient temperature measured by the external sensor (°C),aerosol sample conditioner tube jacket temperature (°C),OPC LED temperature (°C),internal box temperature (°C),relative humidity of the measurement (%),span deviation,mass concentration of particles derived from Lorenz-Mie calculation of OPC scattering (μg/m³),mass concentration of particles derived from Lorenz-Mie calculation of OPC scattering (μg/m³),mass concentration of particles derived from Lorenz-Mie calculation of OPC scattering (μg/m³)
DateTimeUTC,F1_M11,P_M11,Q1_M11,Q2_M11,T1_M11,T2_M11,T3_M11,T4_M11,T5_M11,U1_M11,ZSPAN_M11,X2_M11,X0_M11,X1_M11
2023-07-14 18:00:00,SystemResetWarning,0835.0,5.01,000.00,029.4,025.3,000.0,037.4,030.5,34.0,-001.8,0008.17,0019.40,0006.73
2023-07-14 18:01:00,SystemResetWarning,0834.9,5.01,000.00,029.3,024.6,000.0,037.3,030.3,33.5,-001.9,0008.17,0020.84,0006.75
2023-07-14 18:02:00,SystemResetWarning,0834.9,5.01,000.00,029.2,024.8,000.0,037.3,030.1,34.3,-002.0,0008.15,0022.00,0006.77
2023-07-14 18:03:00,SystemResetWarning,0835.0,5.00,000.00,029.1,025.2,000.0,037.4,030.1,33.6,-001.9,0008.18,0023.20,0006.77
2023-07-14 18:04:00,SystemResetWarning,0835.0,5.00,000.00,029.1,025.6,000.0,037.4,030.2,33.6,-002.0,0008.21,0023.56,0006.79
2023-07-14 18:05:00,SystemResetWarning,0835.0,4.99,000.00,029.1,026.1,000.0,037.4,030.3,33.2,-002.0,0008.16,0022.68,0006.80
2023-07-14 18:06:00,SystemResetWarning,0834.9,5.00,000.00,029.1,026.5,000.0,037.4,030.4,34.2,-001.9,0008.18,0023.71,0006.82
2023-07-14 18:07:00,SystemResetWarning,0835.1,5.00,000.00,029.1,026.9,000.0,037.4,030.4,34.2,-002.0,0008.20,0023.73,0006.83
2023-07-14 18:08:00,SystemResetWarning,0835.0,5.00,000.00,029.1,027.2,000.0,037.5,030.5,33.6,-002.1,0008.14,0023.35,0006.83
2023-07-14 18:09:00,SystemResetWarning,0835.0,5.00,000.00,029.2,027.4,000.0,037.5,030.6,34.5,-002.3,0008.17,0023.94,0006.85
2023-07-14 18:10:00,SystemResetWarning,0835.0,5.00,000.00,029.2,027.6,000.0,037.5,030.7,33.4,-002.2,0008.31,0026.36,0006.88
2023-07-14 18:11:00,SystemResetWarning,0835.0,4.98,000.00,029.2,026.6,000.0,037.4,030.6,33.2,-002.0,0008.35,0025.56,0006.90
2023-07-14 18:12:00,SystemResetWarning,0834.9,5.01,000.00,029.1,025.0,000.0,037.3,030.3,33.4,-001.9,0008.38,0024.71,0006.91
2023-07-14 18:13:00,SystemResetWarning,0835.0,5.01,000.00,029.0,024.5,000.0,037.2,030.1,34.3,-001.9,0008.40,0023.91,0006.92
2023-07-14 18:14:00,SystemResetWarning,0834.9,4.99,000.00,028.9,024.8,000.0,037.2,030.0,35.0,-001.7,0008.39,0022.00,0006.94
2023-07-14 18:15:00,SystemResetWarning,0835.4,5.02,000.00,029.0,025.2,000.0,037.3,030.1,34.5,-001.3,0008.44,0021.03,0006.95
2023-07-14 18:16:00,SystemResetWarning,0835.3,4.99,000.00,029.0,025.7,000.0,037.3,030.2,34.2,-001.1,0008.51,0021.40,0006.96
2023-07-14 18:17:00,SystemResetWarning,0835.3,5.00,000.00,029.1,026.1,000.0,037.3,030.3,33.0,-001.3,0008.53,0020.42,0006.96
2023-07-14 18:18:00,SystemResetWarning,0835.2,5.00,000.00,029.1,026.5,000.0,037.3,030.3,32.7,-001.1,0008.56,0020.61,0006.96
2023-07-14 18:19:00,SystemResetWarning,0835.0,5.01,000.00,029.1,026.8,000.0,037.4,030.4,32.6,-000.8,0008.66,0020.63,0006.99
2023-07-14 18:20:00,SystemResetWarning,0835.3,5.01,000.00,029.2,027.1,000.0,037.4,030.5,32.6,-000.4,0008.66,0020.36,0007.00
2023-07-14 18:21:00,SystemResetWarning,0835.0,4.99,000.00,029.2,027.4,000.0,037.4,030.6,33.0,-000.1,0008.62,0018.33,0007.00
2023-07-14 18:22:00,SystemResetWarning,0834.9,4.98,000.00,029.3,027.6,000.0,037.5,030.7,32.9,-000.0,0008.59,0017.86,0007.00
2023-07-14 18:23:00,SystemResetWarning,0835.0,4.99,000.00,029.3,027.0,000.0,037.4,030.6,32.5,0000.0,0008.57,0017.69,0007.00
2023-07-14 18:24:00,SystemResetWarning,0834.9,5.00,000.00,029.3,025.7,000.0,037.3,030.4,32.4,0000.2,0008.53,0017.98,0006.99
2023-07-14 18:25:00,SystemResetWarning,0835.2,5.01,000.00,029.2,025.5,000.0,037.3,030.3,33.5,0000.3,0008.52,0018.69,0006.98
2023-07-14 18:26:00,SystemResetWarning,0835.4,5.01,000.00,029.1,025.7,000.0,037.3,030.2,33.2,0000.6,0008.45,0018.44,0006.95
2023-07-14 18:27:00,SystemResetWarning,0835.0,5.00,000.00,029.1,026.1,000.0,037.4,030.3,33.2,0000.6,0008.37,0018.42,0006.93
2023-07-14 18:28:00,SystemResetWarning,0834.9,5.00,000.00,029.1,026.5,000.0,037.4,030.4,33.3,0001.0,0008.29,0019.43,0006.93
2023-07-14 18:29:00,SystemResetWarning,0834.8,5.00,000.00,029.1,026.8,000.0,037.4,030.5,33.3,0000.9,0008.21,0018.87,0006.92
2023-07-14 18:30:00,SystemResetWarning,0834.7,5.00,000.00,029.2,027.1,000.0,037.5,030.5,34.1,0000.4,0008.14,0018.85,0006.90
2023-07-14 18:31:00,SystemResetWarning,0834.7,5.00,000.00,029.2,027.4,000.0,037.5,030.6,32.6,0000.2,0008.20,0019.31,0006.89
2023-07-14 18:32:00,SystemResetWarning,0834.7,5.00,000.00,029.2,027.6,000.0,037.5,030.7,32.6,0000.3,0008.21,0019.15,0006.89
2023-07-14 18:33:00,SystemResetWarning,0834.8,4.99,000.00,029.3,027.2,000.0,037.5,030.7,32.5,0000.6,0008.12,0018.80,0006.89
2023-07-14 18:34:00,SystemResetWarning,0834.8,5.00,000.00,029.2,025.6,000.0,037.3,030.5,33.7,0000.4,0008.11,0018.55,0006.87
2023-07-14 18:35:00,SystemResetWarning,0835.1,5.00,000.00,029.2,024.8,000.0,037.2,030.3,33.3,0000.6,0008.11,0017.81,0006.87
2023-07-14 18:36:00,SystemResetWarning,0835.1,5.01,000.00,029.1,024.8,000.0,037.2,030.1,33.4,0000.3,0008.13,0017.51,0006.87
2023-07-14 18:37:00,SystemResetWarning,0835.2,5.00,000.00,029.0,025.2,000.0,037.3,030.1,33.8,0000.1,0008.14,0018.17,0006.88
2023-07-14 18:38:00,SystemResetWarning,0835.0,5.00,000.00,029.0,025.7,000.0,037.3,030.2,33.5,-000.2,0008.14,0017.81,0006.88
2023-07-14 18:39:00,SystemResetWarning,0835.1,5.00,000.00,029.0,026.1,000.0,037.3,030.3,32.8,-000.3,0008.17,0016.55,0006.86
2023-07-14 18:40:00,SystemResetWarning,0835.1,5.00,000.00,029.0,026.5,000.0,037.4,030.4,32.2,-000.4,0008.23,0016.75,0006.86
2023-07-14 18:41:00,SystemResetWarning,0834.8,5.00,000.00,029.0,026.9,000.0,037.4,030.4,32.6,-000.2,0008.23,0016.94,0006.85
2023-07-14 18:42:00,SystemResetWarning,0835.1,5.00,000.00,029.1,027.2,000.0,037.4,030.5,32.2,-000.5,0008.20,0016.69,0006.84
2023-07-14 18:43:00,SystemResetWarning,0834.7,5.00,000.00,029.1,027.4,000.0,037.4,030.6,32.7,-000.5,0008.15,0016.22,0006.83
2023-07-14 18:44:00,SystemResetWarning,0834.6,4.99,000.00,029.1,027.4,000.0,037.4,030.7,32.9,-000.6,0008.19,0016.23,0006.81
2023-07-14 18:45:00,SystemResetWarning,0834.7,4.99,000.00,029.1,026.1,000.0,037.3,030.5,33.3,-000.7,0008.18,0016.17,0006.82
2023-07-14 18:46:00,SystemResetWarning,0834.7,5.01,000.00,029.1,025.6,000.0,037.2,030.4,32.5,-000.8,0008.19,0016.48,0006.81
2023-07-14 18:47:00,SystemResetWarning,0834.7,5.01,000.00,029.0,025.8,000.0,037.2,030.3,32.3,-000.7,0008.14,0016.22,0006.80
2023-07-14 18:48:00,SystemResetWarning,0834.6,5.00,000.00,029.0,026.1,000.0,037.3,030.3,32.9,-000.7,0008.13,0015.31,0006.80
2023-07-14 18:49:00,SystemResetWarning,0834.6,5.01,000.00,029.0,026.5,000.0,037.3,030.4,32.4,-000.9,0008.15,0015.11,0006.83
2023-07-14 18:50:00,SystemResetWarning,0834.9,5.00,000.00,029.0,026.8,000.0,037.3,030.4,32.4,-001.2,0008.15,0015.06,0006.83
2023-07-14 18:51:00,SystemResetWarning,0834.9,5.00,000.00,029.0,027.1,000.0,037.4,030.5,32.7,-001.1,0008.15,0015.20,0006.84
2023-07-14 18:52:00,SystemResetWarning,0835.0,5.00,000.00,029.1,027.4,000.0,037.4,030.6,32.6,-000.7,0008.14,0015.84,0006.86
2023-07-14 18:53:00,SystemResetWarning,0835.1,5.00,000.00,029.1,027.4,000.0,037.4,030.7,33.5,-000.4,0008.12,0015.96,0006.86
2023-07-14 18:54:00,SystemResetWarning,0834.7,4.98,000.00,029.1,026.0,000.0,037.3,030.5,33.4,-000.5,0008.12,0016.77,0006.87
2023-07-14 18:55:00,SystemResetWarning,0834.6,5.03,000.00,029.0,024.8,000.0,037.2,030.2,32.8,-000.7,0008.11,0017.16,0006.87
2023-07-14 18:56:00,SystemResetWarning,0834.5,5.00,000.00,028.9,024.7,000.0,037.1,030.1,32.9,-000.6,0008.11,0017.00,0006.88
2023-07-14 18:57:00,SystemResetWarning,0834.5,4.99,000.00,028.8,025.1,000.0,037.2,030.0,33.6,-000.9,0008.11,0016.36,0006.90
2023-07-14 18:58:00,SystemResetWarning,0834.7,4.99,000.00,028.8,025.5,000.0,037.2,030.1,34.2,-001.4,0008.13,0016.24,0006.90
2023-07-14 18:59:00,SystemResetWarning,0834.6,5.01,000.00,028.8,026.0,000.0,037.2,030.2,33.8,-001.4,0008.17,0016.67,0006.91
